sat.trackr.live / text

‹ back to catalog

STARLINK-31760

NORAD 59869 · 2024-098M

PAYLOAD ACTIVE UNKNOWN

§ Identity

Operator
Country
US
Launch date
2024-05-24
Launch site
AFETR
Launch vehicle
Mass (kg)
RCS (m²)

Purposes: comms

External: N2YO · Heavens-Above · Gunter

§ Orbital elements

Epoch: 2026-09-21T15:46:38.307648Z

Period
94.27 min
Inclination
42.9972°
Eccentricity
0.0001165
Mean motion
15.27570795 rev/d
Perigee alt
482.3 km
Apogee alt
483.9 km
Semi-major
6,861.2 km
B*
7.6036e-5
RAAN
251.5473°
Arg perigee
284.2118°
Mean anomaly
75.8604°
Rev number
13,181

§ Raw data

STARLINK-317601 59869U 24098M   26264.65738782  .00001830  00000+0  76036-4 0  99932 59869  42.9972 251.5473 0001165 284.2118  75.8604 15.27570795131810

JSON: /api/v1/satellites/59869 · /tle

For live sub-satellite position, see the globe view (requires WebGL).

§ Visibility from observer

Set your observer location to see the next 7 days of passes ≥ 10°. The values pass through the URL so the page stays shareable.

No JS? Fill the form by hand. The geolocation button needs JavaScript.